contact:dominique.lefevre@mio.osupytheas.fr, maurice.libes@osupytheas.fr, didier.mallarino@osupytheas.fr
Project:EMSO http://www.emso-fr.org/EMSO-France
Depth: 2436.0 m
Title:EMSO Ligure Ouest : Data MII capteur CSTAR
DateTime,Latitude,Longitude,Instrument_Serial,Reference_Counts,Signal_Counts,Corrected_Signal_raw_counts,Calculated_Beam_c_inverse_meters,Internal_thermistor_counts
DateTime,Latitude,Longitude,Instrument_Serial,Reference_Counts,Signal_Counts,Corrected_Signal_raw_counts,Calculated_Beam_c_inverse_meters,Internal_thermistor_counts
2019-10-16T00:00:35,42.805,6.029,CST-1368DR,7593,10639,15344,0.070,551
2019-10-16T00:03:37,42.805,6.029,CST-1368DR,7593,10637,15341,0.071,551
2019-10-16T00:06:39,42.805,6.029,CST-1368DR,7593,10636,15340,0.071,551
2019-10-16T00:09:40,42.805,6.029,CST-1368DR,7593,10638,15343,0.071,551
2019-10-16T00:12:42,42.805,6.029,CST-1368DR,7593,10636,15340,0.071,551
2019-10-16T00:15:44,42.805,6.029,CST-1368DR,7593,10635,15339,0.072,551
2019-10-16T00:18:45,42.805,6.029,CST-1368DR,7593,10637,15341,0.071,550
2019-10-16T00:21:47,42.805,6.029,CST-1368DR,7593,10638,15343,0.071,551
2019-10-16T00:24:49,42.805,6.029,CST-1368DR,7593,10632,15335,0.073,551
2019-10-16T00:27:50,42.805,6.029,CST-1368DR,7593,10634,15337,0.072,551
2019-10-16T00:30:52,42.805,6.029,CST-1368DR,7593,10638,15342,0.071,551
2019-10-16T00:33:53,42.805,6.029,CST-1368DR,7593,10637,15341,0.071,551
2019-10-16T00:36:55,42.805,6.029,CST-1368DR,7593,10638,15342,0.071,551
2019-10-16T00:39:57,42.805,6.029,CST-1368DR,7593,10635,15339,0.072,551
2019-10-16T00:42:58,42.805,6.029,CST-1368DR,7593,10638,15342,0.071,551
2019-10-16T00:46:00,42.805,6.029,CST-1368DR,7593,10637,15341,0.071,551
2019-10-16T00:49:02,42.805,6.029,CST-1368DR,7593,10637,15341,0.071,551
2019-10-16T00:52:03,42.805,6.029,CST-1368DR,7593,10635,15338,0.072,551
2019-10-16T00:55:05,42.805,6.029,CST-1368DR,7593,10636,15340,0.071,551
2019-10-16T00:58:07,42.805,6.029,CST-1368DR,7593,10634,15337,0.072,551
2019-10-16T01:01:08,42.805,6.029,CST-1368DR,7593,10637,15341,0.071,551
2019-10-16T01:04:10,42.805,6.029,CST-1368DR,7593,10635,15338,0.072,551
2019-10-16T01:07:12,42.805,6.029,CST-1368DR,7593,10634,15337,0.072,551
2019-10-16T01:10:13,42.805,6.029,CST-1368DR,7593,10637,15341,0.071,551
2019-10-16T01:13:15,42.805,6.029,CST-1368DR,7593,10637,15341,0.071,551
2019-10-16T01:16:17,42.805,6.029,CST-1368DR,7593,10637,15341,0.071,551
2019-10-16T01:19:18,42.805,6.029,CST-1368DR,7593,10636,15340,0.071,551
2019-10-16T01:22:20,42.805,6.029,CST-1368DR,7593,10636,15340,0.071,551
2019-10-16T01:25:22,42.805,6.029,CST-1368DR,7593,10635,15339,0.072,551
2019-10-16T01:28:23,42.805,6.029,CST-1368DR,7593,10634,15337,0.072,551
2019-10-16T01:31:25,42.805,6.029,CST-1368DR,7593,10636,15340,0.071,551
2019-10-16T01:34:27,42.805,6.029,CST-1368DR,7593,10637,15341,0.071,551
2019-10-16T01:37:28,42.805,6.029,CST-1368DR,7593,10636,15340,0.071,551
2019-10-16T01:40:30,42.805,6.029,CST-1368DR,7593,10636,15340,0.071,551
2019-10-16T01:43:31,42.805,6.029,CST-1368DR,7593,10636,15340,0.071,551
2019-10-16T01:46:33,42.805,6.029,CST-1368DR,7593,10637,15341,0.071,551
2019-10-16T01:49:35,42.805,6.029,CST-1368DR,7593,10636,15339,0.072,551
2019-10-16T01:52:36,42.805,6.029,CST-1368DR,7593,10637,15341,0.071,551
2019-10-16T01:55:38,42.805,6.029,CST-1368DR,7593,10636,15340,0.071,551
2019-10-16T01:58:40,42.805,6.029,CST-1368DR,7593,10635,15338,0.072,551
2019-10-16T02:01:41,42.805,6.029,CST-1368DR,7593,10635,15339,0.072,551
2019-10-16T02:04:43,42.805,6.029,CST-1368DR,7593,10636,15340,0.071,551
2019-10-16T02:07:45,42.805,6.029,CST-1368DR,7592,10633,15337,0.072,551
2019-10-16T02:10:46,42.805,6.029,CST-1368DR,7593,10635,15339,0.072,550
2019-10-16T02:13:48,42.805,6.029,CST-1368DR,7592,10635,15340,0.071,551
2019-10-16T02:16:49,42.805,6.029,CST-1368DR,7592,10634,15339,0.072,550
2019-10-16T02:19:51,42.805,6.029,CST-1368DR,7592,10635,15340,0.071,550
2019-10-16T02:22:53,42.805,6.029,CST-1368DR,7593,10636,15340,0.071,551
2019-10-16T02:25:54,42.805,6.029,CST-1368DR,7593,10635,15339,0.072,551
2019-10-16T02:28:56,42.805,6.029,CST-1368DR,7593,10633,15336,0.072,551
2019-10-16T02:31:58,42.805,6.029,CST-1368DR,7592,10635,15341,0.071,550
2019-10-16T02:35:00,42.805,6.029,CST-1368DR,7592,10634,15339,0.072,551
2019-10-16T02:38:01,42.805,6.029,CST-1368DR,7592,10628,15330,0.074,550
2019-10-16T02:41:03,42.805,6.029,CST-1368DR,7593,10635,15339,0.072,551
2019-10-16T02:44:05,42.805,6.029,CST-1368DR,7592,10635,15340,0.071,551
2019-10-16T02:47:06,42.805,6.029,CST-1368DR,7592,10636,15341,0.071,551
2019-10-16T02:50:08,42.805,6.029,CST-1368DR,7592,10634,15339,0.072,550
2019-10-16T02:53:10,42.805,6.029,CST-1368DR,7592,10636,15342,0.071,551
2019-10-16T02:56:11,42.805,6.029,CST-1368DR,7592,10634,15339,0.072,551
2019-10-16T02:59:13,42.805,6.029,CST-1368DR,7592,10635,15340,0.071,551
2019-10-16T03:02:15,42.805,6.029,CST-1368DR,7592,10636,15341,0.071,551
2019-10-16T03:05:16,42.805,6.029,CST-1368DR,7592,10637,15343,0.071,551
2019-10-16T03:08:18,42.805,6.029,CST-1368DR,7592,10636,15342,0.071,551
2019-10-16T03:11:19,42.805,6.029,CST-1368DR,7592,10632,15336,0.072,551
2019-10-16T03:14:21,42.805,6.029,CST-1368DR,7592,10635,15340,0.071,551
2019-10-16T03:17:23,42.805,6.029,CST-1368DR,7592,10635,15340,0.071,551
2019-10-16T03:20:24,42.805,6.029,CST-1368DR,7592,10635,15340,0.071,551
2019-10-16T03:23:26,42.805,6.029,CST-1368DR,7592,10634,15339,0.072,551
2019-10-16T03:26:28,42.805,6.029,CST-1368DR,7592,10636,15342,0.071,551
2019-10-16T03:29:29,42.805,6.029,CST-1368DR,7592,10635,15340,0.071,551
2019-10-16T03:32:31,42.805,6.029,CST-1368DR,7592,10635,15340,0.071,551
2019-10-16T03:35:33,42.805,6.029,CST-1368DR,7592,10636,15341,0.071,551
2019-10-16T03:38:34,42.805,6.029,CST-1368DR,7592,10633,15337,0.072,551
2019-10-16T03:41:36,42.805,6.029,CST-1368DR,7592,10635,15340,0.071,551
2019-10-16T03:44:38,42.805,6.029,CST-1368DR,7592,10634,15339,0.072,550
2019-10-16T03:47:39,42.805,6.029,CST-1368DR,7592,10635,15340,0.071,551
2019-10-16T03:50:41,42.805,6.029,CST-1368DR,7592,10629,15331,0.074,551
2019-10-16T03:53:43,42.805,6.029,CST-1368DR,7592,10630,15333,0.073,551
2019-10-16T03:56:44,42.805,6.029,CST-1368DR,7592,10634,15339,0.072,551
2019-10-16T03:59:46,42.805,6.029,CST-1368DR,7592,10631,15335,0.073,551
2019-10-16T04:02:48,42.805,6.029,CST-1368DR,7592,10633,15338,0.072,551
2019-10-16T04:05:50,42.805,6.029,CST-1368DR,7592,10635,15340,0.071,551
2019-10-16T04:08:51,42.805,6.029,CST-1368DR,7592,10633,15337,0.072,551
2019-10-16T04:11:53,42.805,6.029,CST-1368DR,7592,10634,15339,0.072,551
2019-10-16T04:14:55,42.805,6.029,CST-1368DR,7592,10634,15339,0.072,550
2019-10-16T04:17:56,42.805,6.029,CST-1368DR,7592,10633,15338,0.072,551
2019-10-16T04:20:58,42.805,6.029,CST-1368DR,7592,10635,15340,0.071,551
2019-10-16T04:23:59,42.805,6.029,CST-1368DR,7592,10635,15340,0.071,550
2019-10-16T04:27:01,42.805,6.029,CST-1368DR,7591,10633,15339,0.072,551
2019-10-16T04:30:03,42.805,6.029,CST-1368DR,7592,10635,15340,0.071,551
2019-10-16T04:33:04,42.805,6.029,CST-1368DR,7591,10627,15330,0.074,551
2019-10-16T04:36:06,42.805,6.029,CST-1368DR,7591,10627,15330,0.074,551
2019-10-16T04:39:08,42.805,6.029,CST-1368DR,7591,10634,15340,0.071,550
2019-10-16T04:42:09,42.805,6.029,CST-1368DR,7591,10633,15339,0.072,551
2019-10-16T04:45:11,42.805,6.029,CST-1368DR,7591,10630,15334,0.073,551
2019-10-16T04:48:13,42.805,6.029,CST-1368DR,7591,10635,15342,0.071,551
2019-10-16T04:51:14,42.805,6.029,CST-1368DR,7591,10633,15339,0.072,551
2019-10-16T04:54:16,42.805,6.029,CST-1368DR,7591,10635,15342,0.071,551
2019-10-16T04:57:18,42.805,6.029,CST-1368DR,7591,10635,15342,0.071,551
2019-10-16T05:00:19,42.805,6.029,CST-1368DR,7591,10634,15340,0.071,551
2019-10-16T05:03:21,42.805,6.029,CST-1368DR,7591,10635,15342,0.071,551
2019-10-16T05:06:23,42.805,6.029,CST-1368DR,7591,10634,15340,0.071,551
2019-10-16T05:09:24,42.805,6.029,CST-1368DR,7591,10634,15341,0.071,551
2019-10-16T05:12:26,42.805,6.029,CST-1368DR,7591,10633,15339,0.072,551
2019-10-16T05:15:27,42.805,6.029,CST-1368DR,7591,10635,15342,0.071,551
2019-10-16T05:18:29,42.805,6.029,CST-1368DR,7591,10634,15340,0.071,551
2019-10-16T05:21:31,42.805,6.029,CST-1368DR,7591,10634,15340,0.071,551
2019-10-16T05:24:32,42.805,6.029,CST-1368DR,7591,10631,15336,0.072,550
2019-10-16T05:27:34,42.805,6.029,CST-1368DR,7591,10634,15341,0.071,551
2019-10-16T05:30:36,42.805,6.029,CST-1368DR,7591,10634,15341,0.071,551
2019-10-16T05:33:37,42.805,6.029,CST-1368DR,7591,10634,15340,0.071,551
2019-10-16T05:36:39,42.805,6.029,CST-1368DR,7589,10393,14997,0.162,551
2019-10-16T05:39:41,42.805,6.029,CST-1368DR,7591,10635,15342,0.071,551
2019-10-16T05:42:43,42.805,6.029,CST-1368DR,7591,10633,15339,0.072,551
2019-10-16T05:45:44,42.805,6.029,CST-1368DR,7591,10633,15339,0.072,551
2019-10-16T05:48:46,42.805,6.029,CST-1368DR,7591,10632,15337,0.072,551
2019-10-16T05:51:47,42.805,6.029,CST-1368DR,7591,10633,15340,0.071,551
2019-10-16T05:54:49,42.805,6.029,CST-1368DR,7591,10635,15342,0.071,551
2019-10-16T05:57:51,42.805,6.029,CST-1368DR,7591,10635,15342,0.071,551
2019-10-16T06:00:52,42.805,6.029,CST-1368DR,7591,10633,15339,0.072,551
2019-10-16T06:03:54,42.805,6.029,CST-1368DR,7591,10635,15342,0.071,551
2019-10-16T06:06:56,42.805,6.029,CST-1368DR,7591,10634,15340,0.071,551
2019-10-16T06:09:57,42.805,6.029,CST-1368DR,7591,10635,15342,0.071,551
2019-10-16T06:12:59,42.805,6.029,CST-1368DR,7591,10635,15343,0.071,551
2019-10-16T06:16:01,42.805,6.029,CST-1368DR,7591,10635,15342,0.071,551
2019-10-16T06:19:02,42.805,6.029,CST-1368DR,7591,10634,15340,0.071,551
2019-10-16T06:22:04,42.805,6.029,CST-1368DR,7591,10635,15343,0.071,551
2019-10-16T06:25:06,42.805,6.029,CST-1368DR,7591,10635,15342,0.071,551
2019-10-16T06:28:07,42.805,6.029,CST-1368DR,7591,10633,15339,0.072,551
2019-10-16T06:31:09,42.805,6.029,CST-1368DR,7591,10633,15340,0.071,550
2019-10-16T06:34:11,42.805,6.029,CST-1368DR,7591,10634,15340,0.071,551
2019-10-16T06:37:12,42.805,6.029,CST-1368DR,7591,10632,15338,0.072,551
2019-10-16T06:40:14,42.805,6.029,CST-1368DR,7591,10632,15337,0.072,551
2019-10-16T06:43:16,42.805,6.029,CST-1368DR,7591,10635,15342,0.071,551
2019-10-16T06:46:17,42.805,6.029,CST-1368DR,7591,10634,15341,0.071,551
2019-10-16T06:49:19,42.805,6.029,CST-1368DR,7591,10631,15337,0.072,551
2019-10-16T06:52:20,42.805,6.029,CST-1368DR,7591,10633,15340,0.071,551
2019-10-16T06:55:22,42.805,6.029,CST-1368DR,7591,10632,15338,0.072,551
2019-10-16T06:58:24,42.805,6.029,CST-1368DR,7591,10633,15339,0.072,551
2019-10-16T07:01:25,42.805,6.029,CST-1368DR,7591,10634,15341,0.071,550
2019-10-16T07:04:27,42.805,6.029,CST-1368DR,7586,9861,14235,0.370,551
2019-10-16T07:07:29,42.805,6.029,CST-1368DR,7591,10632,15338,0.072,550
2019-10-16T07:10:30,42.805,6.029,CST-1368DR,7591,10635,15342,0.071,551
2019-10-16T07:13:32,42.805,6.029,CST-1368DR,7591,10632,15338,0.072,550
2019-10-16T07:16:34,42.805,6.029,CST-1368DR,7590,10633,15341,0.071,551
2019-10-16T07:19:35,42.805,6.029,CST-1368DR,7591,10633,15340,0.071,550
2019-10-16T07:22:37,42.805,6.029,CST-1368DR,7591,10633,15339,0.072,551
2019-10-16T07:25:39,42.805,6.029,CST-1368DR,7590,10634,15342,0.071,551
2019-10-16T07:28:40,42.805,6.029,CST-1368DR,7591,10633,15339,0.072,550
2019-10-16T07:31:42,42.805,6.029,CST-1368DR,7591,10633,15339,0.072,551
2019-10-16T07:34:43,42.805,6.029,CST-1368DR,7591,10634,15340,0.071,551
2019-10-16T07:37:45,42.805,6.029,CST-1368DR,7591,10632,15337,0.072,551
2019-10-16T07:40:47,42.805,6.029,CST-1368DR,7591,10632,15338,0.072,551
2019-10-16T07:43:48,42.805,6.029,CST-1368DR,7590,10634,15342,0.071,551
2019-10-16T07:46:50,42.805,6.029,CST-1368DR,7590,10634,15342,0.071,550
2019-10-16T07:49:52,42.805,6.029,CST-1368DR,7590,10633,15342,0.071,551
2019-10-16T07:52:53,42.805,6.029,CST-1368DR,7590,10630,15337,0.072,551
2019-10-16T07:55:55,42.805,6.029,CST-1368DR,7590,10633,15341,0.071,551
2019-10-16T07:58:57,42.805,6.029,CST-1368DR,7590,10632,15339,0.072,551
2019-10-16T08:01:58,42.805,6.029,CST-1368DR,7590,10632,15339,0.072,551
2019-10-16T08:05:00,42.805,6.029,CST-1368DR,7590,10634,15342,0.071,551
2019-10-16T08:08:01,42.805,6.029,CST-1368DR,7590,10633,15341,0.071,551
2019-10-16T08:11:03,42.805,6.029,CST-1368DR,7590,10632,15339,0.072,550
2019-10-16T08:14:05,42.805,6.029,CST-1368DR,7590,10634,15342,0.071,551
2019-10-16T08:17:06,42.805,6.029,CST-1368DR,7590,10633,15341,0.071,551
2019-10-16T08:20:08,42.805,6.029,CST-1368DR,7590,10633,15342,0.071,551
2019-10-16T08:23:10,42.805,6.029,CST-1368DR,7590,10632,15340,0.071,551
2019-10-16T08:26:11,42.805,6.029,CST-1368DR,7590,10632,15340,0.071,551
2019-10-16T08:29:13,42.805,6.029,CST-1368DR,7590,10632,15339,0.072,551
2019-10-16T08:32:15,42.805,6.029,CST-1368DR,7590,10633,15341,0.071,551
2019-10-16T08:35:16,42.805,6.029,CST-1368DR,7590,10630,15337,0.072,551
2019-10-16T08:38:18,42.805,6.029,CST-1368DR,7590,10632,15340,0.071,551
2019-10-16T08:41:20,42.805,6.029,CST-1368DR,7590,10633,15341,0.071,550
2019-10-16T08:44:21,42.805,6.029,CST-1368DR,7590,10632,15340,0.071,551
2019-10-16T08:47:23,42.805,6.029,CST-1368DR,7590,10633,15341,0.071,551
2019-10-16T08:50:24,42.805,6.029,CST-1368DR,7590,10632,15340,0.071,551
2019-10-16T08:53:26,42.805,6.029,CST-1368DR,7590,10632,15340,0.071,551
2019-10-16T08:56:28,42.805,6.029,CST-1368DR,7590,10635,15343,0.071,551
2019-10-16T08:59:29,42.805,6.029,CST-1368DR,7590,10635,15344,0.070,551
2019-10-16T09:02:31,42.805,6.029,CST-1368DR,7590,10634,15343,0.071,551
2019-10-16T09:05:33,42.805,6.029,CST-1368DR,7590,10635,15345,0.070,551
2019-10-16T09:08:34,42.805,6.029,CST-1368DR,7590,10633,15342,0.071,551
2019-10-16T09:11:36,42.805,6.029,CST-1368DR,7590,10630,15337,0.072,551
2019-10-16T09:14:38,42.805,6.029,CST-1368DR,7590,10625,15330,0.074,551
2019-10-16T09:17:39,42.805,6.029,CST-1368DR,7587,10245,14787,0.218,550
2019-10-16T09:20:41,42.805,6.029,CST-1368DR,7590,10634,15342,0.071,551
2019-10-16T09:23:43,42.805,6.029,CST-1368DR,7590,10634,15342,0.071,551
2019-10-16T09:26:44,42.805,6.029,CST-1368DR,7590,10633,15341,0.071,551
2019-10-16T09:29:46,42.805,6.029,CST-1368DR,7590,10633,15341,0.071,551
2019-10-16T09:32:48,42.805,6.029,CST-1368DR,7590,10632,15340,0.071,551
2019-10-16T09:35:49,42.805,6.029,CST-1368DR,7590,10625,15330,0.074,551
2019-10-16T09:38:51,42.805,6.029,CST-1368DR,7590,10630,15336,0.072,551
2019-10-16T09:41:53,42.805,6.029,CST-1368DR,7590,10631,15338,0.072,551
2019-10-16T09:44:54,42.805,6.029,CST-1368DR,7590,10632,15340,0.071,551
2019-10-16T09:47:56,42.805,6.029,CST-1368DR,7590,10632,15339,0.072,551
2019-10-16T09:50:57,42.805,6.029,CST-1368DR,7590,10632,15339,0.072,551
2019-10-16T09:53:59,42.805,6.029,CST-1368DR,7590,10634,15342,0.071,551
2019-10-16T09:57:01,42.805,6.029,CST-1368DR,7590,10633,15341,0.071,551
2019-10-16T10:00:03,42.805,6.029,CST-1368DR,7590,10634,15342,0.071,551
2019-10-16T10:03:04,42.805,6.029,CST-1368DR,7590,10633,15341,0.071,551
2019-10-16T10:06:06,42.805,6.029,CST-1368DR,7590,10631,15339,0.072,551
2019-10-16T10:09:07,42.805,6.029,CST-1368DR,7590,10631,15338,0.072,551
2019-10-16T10:12:09,42.805,6.029,CST-1368DR,7590,10632,15340,0.071,551
2019-10-16T10:15:11,42.805,6.029,CST-1368DR,7590,10628,15334,0.073,551
2019-10-16T10:18:12,42.805,6.029,CST-1368DR,7590,10633,15341,0.071,551
2019-10-16T10:21:14,42.805,6.029,CST-1368DR,7590,10632,15340,0.071,551
2019-10-16T10:24:16,42.805,6.029,CST-1368DR,7590,10633,15341,0.071,550
2019-10-16T10:27:17,42.805,6.029,CST-1368DR,7587,10162,14667,0.251,551
2019-10-16T10:30:19,42.805,6.029,CST-1368DR,7590,10633,15341,0.071,551
2019-10-16T10:33:21,42.805,6.029,CST-1368DR,7590,10633,15341,0.071,551
2019-10-16T10:36:22,42.805,6.029,CST-1368DR,7590,10632,15339,0.072,551
2019-10-16T10:39:24,42.805,6.029,CST-1368DR,7590,10630,15336,0.072,551
2019-10-16T10:42:26,42.805,6.029,CST-1368DR,7590,10632,15339,0.072,551
2019-10-16T10:45:27,42.805,6.029,CST-1368DR,7590,10629,15336,0.072,551
2019-10-16T10:48:29,42.805,6.029,CST-1368DR,7590,10633,15341,0.071,551
2019-10-16T10:51:31,42.805,6.029,CST-1368DR,7590,10631,15338,0.072,551
2019-10-16T10:54:32,42.805,6.029,CST-1368DR,7590,10632,15339,0.072,551
2019-10-16T10:57:34,42.805,6.029,CST-1368DR,7590,10631,15339,0.072,551
2019-10-16T11:00:35,42.805,6.029,CST-1368DR,7589,10631,15340,0.071,550
2019-10-16T11:03:37,42.805,6.029,CST-1368DR,7590,10628,15333,0.073,551
2019-10-16T11:06:39,42.805,6.029,CST-1368DR,7590,10632,15340,0.071,551
2019-10-16T11:09:40,42.805,6.029,CST-1368DR,7590,10632,15339,0.072,551
2019-10-16T11:12:42,42.805,6.029,CST-1368DR,7590,10631,15339,0.072,551
2019-10-16T11:15:44,42.805,6.029,CST-1368DR,7590,10630,15337,0.072,551
2019-10-16T11:18:45,42.805,6.029,CST-1368DR,7590,10632,15339,0.072,551
2019-10-16T11:21:47,42.805,6.029,CST-1368DR,7589,10631,15341,0.071,550
2019-10-16T11:24:49,42.805,6.029,CST-1368DR,7589,10630,15338,0.072,551
2019-10-16T11:27:50,42.805,6.029,CST-1368DR,7589,10632,15341,0.071,551
2019-10-16T11:30:52,42.805,6.029,CST-1368DR,7589,10633,15344,0.070,551
2019-10-16T11:33:54,42.805,6.029,CST-1368DR,7589,10632,15342,0.071,551
2019-10-16T11:36:55,42.805,6.029,CST-1368DR,7589,10632,15342,0.071,551
2019-10-16T11:39:57,42.805,6.029,CST-1368DR,7589,10632,15341,0.071,551
2019-10-16T11:42:58,42.805,6.029,CST-1368DR,7589,10631,15340,0.071,551
2019-10-16T11:46:00,42.805,6.029,CST-1368DR,7589,10629,15338,0.072,550
2019-10-16T11:49:02,42.805,6.029,CST-1368DR,7589,10630,15339,0.072,551
2019-10-16T11:52:03,42.805,6.029,CST-1368DR,7589,10630,15338,0.072,551
2019-10-16T11:55:05,42.805,6.029,CST-1368DR,7589,10620,15324,0.076,551
2019-10-16T11:58:07,42.805,6.029,CST-1368DR,7589,10630,15339,0.072,551
2019-10-16T12:01:08,42.805,6.029,CST-1368DR,7589,10631,15340,0.071,551
2019-10-16T12:04:10,42.805,6.029,CST-1368DR,7589,10632,15341,0.071,551
2019-10-16T12:07:12,42.805,6.029,CST-1368DR,7589,10632,15341,0.071,551
2019-10-16T12:10:13,42.805,6.029,CST-1368DR,7589,10630,15339,0.072,551
2019-10-16T12:13:15,42.805,6.029,CST-1368DR,7589,10631,15341,0.071,551
2019-10-16T12:16:17,42.805,6.029,CST-1368DR,7589,10631,15340,0.071,551
2019-10-16T12:19:18,42.805,6.029,CST-1368DR,7589,10616,15318,0.077,551
2019-10-16T12:22:20,42.805,6.029,CST-1368DR,7589,10630,15339,0.072,551
2019-10-16T12:25:22,42.805,6.029,CST-1368DR,7589,10624,15331,0.074,551
2019-10-16T12:28:23,42.805,6.029,CST-1368DR,7589,10629,15338,0.072,551
2019-10-16T12:31:25,42.805,6.029,CST-1368DR,7589,10629,15338,0.072,550
2019-10-16T12:34:26,42.805,6.029,CST-1368DR,7589,10632,15342,0.071,551
2019-10-16T12:37:28,42.805,6.029,CST-1368DR,7589,10631,15341,0.071,551
2019-10-16T12:40:30,42.805,6.029,CST-1368DR,7589,10629,15337,0.072,551
2019-10-16T12:43:31,42.805,6.029,CST-1368DR,7589,10629,15337,0.072,551
2019-10-16T12:46:33,42.805,6.029,CST-1368DR,7589,10631,15340,0.071,551
2019-10-16T12:49:35,42.805,6.029,CST-1368DR,7589,10631,15340,0.071,551
2019-10-16T12:52:36,42.805,6.029,CST-1368DR,7589,10631,15340,0.071,551
2019-10-16T12:55:38,42.805,6.029,CST-1368DR,7589,10629,15338,0.072,551
2019-10-16T12:58:40,42.805,6.029,CST-1368DR,7589,10630,15338,0.072,551
2019-10-16T13:01:41,42.805,6.029,CST-1368DR,7589,10631,15340,0.071,551
2019-10-16T13:04:43,42.805,6.029,CST-1368DR,7589,10631,15340,0.071,551
2019-10-16T13:07:45,42.805,6.029,CST-1368DR,7589,10631,15340,0.071,551
2019-10-16T13:10:46,42.805,6.029,CST-1368DR,7589,10632,15342,0.071,551
2019-10-16T13:13:48,42.805,6.029,CST-1368DR,7589,10631,15341,0.071,550
2019-10-16T13:16:50,42.805,6.029,CST-1368DR,7589,10631,15340,0.071,551
2019-10-16T13:19:51,42.805,6.029,CST-1368DR,7589,10630,15338,0.072,551
2019-10-16T13:22:53,42.805,6.029,CST-1368DR,7589,10630,15338,0.072,551
2019-10-16T13:25:55,42.805,6.029,CST-1368DR,7589,10630,15339,0.072,551
2019-10-16T13:28:56,42.805,6.029,CST-1368DR,7589,10630,15338,0.072,551
2019-10-16T13:31:58,42.805,6.029,CST-1368DR,7589,10629,15337,0.072,551
2019-10-16T13:34:59,42.805,6.029,CST-1368DR,7589,10631,15340,0.071,551
2019-10-16T13:38:01,42.805,6.029,CST-1368DR,7589,10630,15338,0.072,551
2019-10-16T13:41:03,42.805,6.029,CST-1368DR,7589,10630,15338,0.072,551
2019-10-16T13:44:04,42.805,6.029,CST-1368DR,7589,10630,15339,0.072,551
2019-10-16T13:47:06,42.805,6.029,CST-1368DR,7589,10630,15339,0.072,551
2019-10-16T13:50:08,42.805,6.029,CST-1368DR,7589,10629,15337,0.072,551
2019-10-16T13:53:09,42.805,6.029,CST-1368DR,7589,10630,15338,0.072,551
2019-10-16T13:56:11,42.805,6.029,CST-1368DR,7588,10629,15339,0.072,551
2019-10-16T13:59:13,42.805,6.029,CST-1368DR,7588,10630,15340,0.071,551
2019-10-16T14:02:14,42.805,6.029,CST-1368DR,7588,10630,15341,0.071,551
2019-10-16T14:05:16,42.805,6.029,CST-1368DR,7589,10630,15338,0.072,551
2019-10-16T14:08:18,42.805,6.029,CST-1368DR,7589,10630,15339,0.072,551
2019-10-16T14:11:19,42.805,6.029,CST-1368DR,7588,10629,15339,0.072,551
2019-10-16T14:14:21,42.805,6.029,CST-1368DR,7588,10629,15340,0.071,551
2019-10-16T14:17:23,42.805,6.029,CST-1368DR,7588,10628,15338,0.072,551
2019-10-16T14:20:24,42.805,6.029,CST-1368DR,7589,10630,15338,0.072,551
2019-10-16T14:23:26,42.805,6.029,CST-1368DR,7588,10630,15340,0.071,551
2019-10-16T14:26:28,42.805,6.029,CST-1368DR,7588,10630,15341,0.071,551
2019-10-16T14:29:29,42.805,6.029,CST-1368DR,7588,10630,15341,0.071,551
2019-10-16T14:32:31,42.805,6.029,CST-1368DR,7588,10630,15340,0.071,551
2019-10-16T14:35:32,42.805,6.029,CST-1368DR,7588,10630,15341,0.071,551
2019-10-16T14:38:34,42.805,6.029,CST-1368DR,7588,10628,15337,0.072,550
2019-10-16T14:41:36,42.805,6.029,CST-1368DR,7588,10630,15341,0.071,551
2019-10-16T14:44:37,42.805,6.029,CST-1368DR,7588,10629,15339,0.072,551
2019-10-16T14:47:39,42.805,6.029,CST-1368DR,7588,10627,15336,0.072,551
2019-10-16T14:50:41,42.805,6.029,CST-1368DR,7588,10623,15331,0.074,551
2019-10-16T14:53:42,42.805,6.029,CST-1368DR,7588,10630,15341,0.071,550
2019-10-16T14:56:44,42.805,6.029,CST-1368DR,7588,10630,15341,0.071,551
2019-10-16T14:59:46,42.805,6.029,CST-1368DR,7588,10630,15340,0.071,551
2019-10-16T15:02:47,42.805,6.029,CST-1368DR,7588,10630,15340,0.071,550
2019-10-16T15:05:49,42.805,6.029,CST-1368DR,7588,10629,15339,0.072,550
2019-10-16T15:08:51,42.805,6.029,CST-1368DR,7588,10629,15339,0.072,551
2019-10-16T15:11:52,42.805,6.029,CST-1368DR,7588,10629,15339,0.072,551
2019-10-16T15:14:54,42.805,6.029,CST-1368DR,7588,10630,15340,0.071,551
2019-10-16T15:17:56,42.805,6.029,CST-1368DR,7588,10629,15339,0.072,551
2019-10-16T15:20:57,42.805,6.029,CST-1368DR,7588,10629,15339,0.072,551
2019-10-16T15:23:59,42.805,6.029,CST-1368DR,7588,10628,15338,0.072,551
2019-10-16T15:27:01,42.805,6.029,CST-1368DR,7588,10627,15336,0.072,551
2019-10-16T15:30:02,42.805,6.029,CST-1368DR,7588,10630,15340,0.071,551
2019-10-16T15:33:04,42.805,6.029,CST-1368DR,7588,10629,15339,0.072,551
2019-10-16T15:36:06,42.805,6.029,CST-1368DR,7588,10630,15340,0.071,551
2019-10-16T15:39:08,42.805,6.029,CST-1368DR,7588,10629,15339,0.072,551
2019-10-16T15:42:09,42.805,6.029,CST-1368DR,7588,10629,15340,0.071,551
2019-10-16T15:45:11,42.805,6.029,CST-1368DR,7588,10629,15340,0.071,551
2019-10-16T15:48:13,42.805,6.029,CST-1368DR,7588,10629,15339,0.072,551
2019-10-16T15:51:14,42.805,6.029,CST-1368DR,7588,10629,15340,0.071,551
2019-10-16T15:54:16,42.805,6.029,CST-1368DR,7588,10630,15340,0.071,551
2019-10-16T15:57:18,42.805,6.029,CST-1368DR,7588,10630,15340,0.071,551
2019-10-16T16:00:19,42.805,6.029,CST-1368DR,7588,10629,15339,0.072,551
2019-10-16T16:03:21,42.805,6.029,CST-1368DR,7588,10629,15339,0.072,551
2019-10-16T16:06:23,42.805,6.029,CST-1368DR,7588,10626,15335,0.073,551
2019-10-16T16:09:25,42.805,6.029,CST-1368DR,7588,10624,15332,0.073,551
2019-10-16T16:12:26,42.805,6.029,CST-1368DR,7588,10630,15340,0.071,551
2019-10-16T16:15:28,42.805,6.029,CST-1368DR,7588,10629,15339,0.072,551
2019-10-16T16:18:30,42.805,6.029,CST-1368DR,7588,10630,15340,0.071,551
2019-10-16T16:21:31,42.805,6.029,CST-1368DR,7588,10630,15340,0.071,551
2019-10-16T16:24:33,42.805,6.029,CST-1368DR,7588,10629,15339,0.072,551
2019-10-16T16:27:34,42.805,6.029,CST-1368DR,7588,10629,15339,0.072,551
2019-10-16T16:30:36,42.805,6.029,CST-1368DR,7588,10626,15335,0.073,551
2019-10-16T16:33:38,42.805,6.029,CST-1368DR,7588,10627,15336,0.072,551
2019-10-16T16:36:39,42.805,6.029,CST-1368DR,7588,10629,15339,0.072,551